STARLINK-35894, 66500

Orbit data source: Space-Track

STARLINK-35894, 66500 is a payload satellite owned by SpaceX/Seattle (US) in LEO that was launched on Sat, 15 Nov 2025 UTC via an FALCON 9 launch vehicle from the Air Force Eastern Test Range (AFETR). Payload-class satellites include a variety of spacecraft equipped with specific instruments for various scientific and technological missions. These include communications satellites like Starlink; space stations such as the ISS; scientific satellites like the Hubble; Earth observation satellites from companies like Planet Labs, Umbra, and HawkEye 360; GPS; miniature CubeSats for education and research; and military/defense satellites.

Loading next visibility...
Identifier
66500, 2025-263R
Orbit
LEO
Country
Flag of USUS
Related business
Manufacturer
SpaceX/Seattle
Mission
Operational Commercial Communications
Bus & Motor
STARLINK V2MO, Unknown motor
Mass
575 kg wet, ~530 kg dry
Launch date (UTC)
2025-11-15 (7 months ago)
Launch vehicle
FALCON 9
Launch site
Air Force Eastern Test Range (AFETR)
Object type
Payload
Rocket body
Debris
Shape & HBR
Box + 2 Pan, 17.7 m
Radar Cross Section
36.964 m², Large (>1 m²)

Expand to show TLE details & history
Last TLE update: 15 hours ago

TLE from 15 hours ago
0 STARLINK-35894
1 66500U 25263R   26171.24389654  .00022327  00000-0  81826-3 0  9997
2 66500  43.0001 134.9548 0002004 261.7978  98.2646 15.27585251 34549
Epoch: 2026-06-20T05:51Z
TLE epoch observation values (Epoch: 2026-06-20T05:51:12.661Z)
Latitude
-0.00003°
Longitude
138.69071°
Altitude
483.007 km
Speed
7.626 km/s
True Right ascension
08h 59m 49s
True Declination
0° 00' 00"
Sunlit
Object was in daylight at epoch
Visualization orbit readout
Latitude
Unknown
Longitude
Unknown
Altitude
Unknown
Speed
Unknown
Apparent Right ascension
Unknown
Apparent Declination
Unknown
Sunlit
N/A
Visualization observer readout
Local Sidereal Time
07:17:37
Azimuth
Unknown
Elevation
Unknown
Doppler factor
Unknown
Orbital elements
Apogee altitude
486.354 km
Perigee altitude
483.603 km
Semi-major axis
6,863.116 km
Eccentricity
0.0002
Inclination
43.0001°
RAAN
134.9548°
Arg. of periapsis
261.7978°
True anomaly
98.28732°
Mean anomaly
98.2646°
Eccentric anomaly
98.27596°
Mean motion
3.81734 °/min
Orbital period
94.31 mins
BSTAR
0.00081826
Loading maneuver chart data...
Computing Atmospheric mass density...
Loading historical data...
Loading historical data...
Loading historical data...
Loading historical data...
Loading historical data...
Loading historical data...
Loading historical data...

Documentation

Showing up to 5 results
|